Weather History for KLJF - July, 2014

Change the Weather History Date:

Saturday, July 26, 2014

  Actual Average Record
Temperature  
Mean Temperature 74 °F -  
Max Temperature 84 °F 83 °F 98 °F (1955)
Min Temperature 64 °F 62 °F 47 °F (1962)
Cooling Degree Days 9    
Growing Degree Days 24 (Base 50)    
Moisture  
Dew Point 67 °F    
Average Humidity 77    
Maximum Humidity 100    
Minimum Humidity 42    
Precipitation  
Precipitation 0.00 in - - ()
Sea Level Pressure  
Sea Level Pressure 29.83 in    
Wind  
Wind Speed 4 mph (West)    
Max Wind Speed 14 mph    
Max Gust Speed 25 mph    
Visibility 9 miles    
Events Fog    
Averages and records for this station are not official NWS values.
T = Trace of Precipitation, MM = Missing Value Source: NWS Daily Summary

Daily Weather History Graph

Daily Weather History Graph

Search for Another Location

Airport or City:

Trip Planner

Search our weather history database for the weather conditions in past years. The results will help you decide how hot, cold, wet, or windy it might be!

Date:

Astronomy

Jul. 26, 2014 Rise Set
Actual Time 5:56 AM CDT 8:51 PM CDT
Civil Twilight 5:21 AM CDT 9:26 PM CDT
Nautical Twilight 4:37 AM CDT 10:10 PM CDT
Astronomical Twilight 3:45 AM CDT 11:02 PM CDT
Moon 5:53 AM CDT (7/26) 8:22 PM CDT (7/26)
Length of Visible Light 16h 04m
Length of Day
14h 55m
Waning Crescent, 0% of the Moon is Illuminated
Jul 26
Waning Crescent
Jul 26
New
Aug 3
First Quarter
Aug 10
Full
Aug 17
Last Quarter

Hourly Weather History & Observations

Time (CDT) Temp. Heat Index Dew Point Humidity Pressure Visibility Wind Dir Wind Speed Gust Speed Precip Events Conditions
12:12 AM 73.4 °F - 73.4 °F 100% 29.83 in 10.0 mi WNW 3.5 mph - N/A   Mostly Cloudy
12:33 AM 75.2 °F - 73.4 °F 94% 29.83 in 10.0 mi WNW 3.5 mph - N/A   Overcast
12:52 AM 73.4 °F - 73.4 °F 100% 29.83 in 10.0 mi NW 3.5 mph - N/A   Overcast
1:13 AM 73.4 °F - 71.6 °F 94% 29.83 in 10.0 mi NW 5.8 mph - N/A   Mostly Cloudy
1:32 AM 71.6 °F - 71.6 °F 100% 29.83 in 10.0 mi NW 5.8 mph - N/A   Scattered Clouds
1:53 AM 71.6 °F - 71.6 °F 100% 29.83 in 10.0 mi NW 6.9 mph - N/A   Scattered Clouds
2:13 AM 71.6 °F - 71.6 °F 100% 29.84 in 10.0 mi NW 6.9 mph - N/A   Clear
2:32 AM 71.6 °F - 69.8 °F 94% 29.84 in 10.0 mi NW 5.8 mph - N/A   Clear
2:53 AM 71.6 °F - 69.8 °F 94% 29.84 in 7.0 mi Calm Calm - N/A   Clear
3:13 AM 69.8 °F - 69.8 °F 100% 29.84 in 7.0 mi Calm Calm - N/A   Clear
3:32 AM 69.8 °F - 69.8 °F 100% 29.83 in 7.0 mi Calm Calm - N/A   Clear
3:53 AM 69.8 °F - 69.8 °F 100% 29.82 in 7.0 mi Calm Calm - N/A   Scattered Clouds
4:13 AM 66.2 °F - 66.2 °F 100% 29.81 in 1.0 mi Calm Calm - N/A   Mist
4:32 AM 68.0 °F - 68.0 °F 100% 29.82 in 2.5 mi Calm Calm - N/A   Scattered Clouds
4:53 AM 68.0 °F - 68.0 °F 100% 29.82 in 5.0 mi Calm Calm - N/A   Mist
5:12 AM 66.2 °F - 66.2 °F 100% 29.82 in 3.0 mi Calm Calm - N/A   Clear
5:33 AM 66.2 °F - 66.2 °F 100% 29.82 in 0.2 mi Calm Calm - N/A Fog Fog
5:53 AM 66.2 °F - 66.2 °F 100% 29.83 in 2.5 mi Calm Calm - N/A   Mist
6:13 AM 64.4 °F - 64.4 °F 100% 29.83 in 1.5 mi Calm Calm - N/A   Mist
6:33 AM 66.2 °F - 66.2 °F 100% 29.84 in 4.0 mi Calm Calm - N/A   Mist
6:53 AM 66.2 °F - 66.2 °F 100% 29.83 in 5.0 mi Calm Calm - N/A   Clear
7:13 AM 66.2 °F - 66.2 °F 100% 29.85 in 4.0 mi SW 3.5 mph - N/A   Mist
7:32 AM 66.2 °F - 66.2 °F 100% 29.86 in 7.0 mi Calm Calm - N/A   Unknown
7:53 AM 68.0 °F - 68.0 °F 100% 29.85 in 7.0 mi Calm Calm - N/A   Clear
8:12 AM 71.6 °F - 69.8 °F 94% 29.83 in 10.0 mi East 3.5 mph - N/A   Clear
8:33 AM 73.4 °F - 66.2 °F 78% 29.83 in 10.0 mi East 5.8 mph - N/A   Clear
8:53 AM 73.4 °F - 66.2 °F 78% 29.85 in 10.0 mi East 3.5 mph - N/A   Clear
9:12 AM 75.2 °F - 64.4 °F 69% 29.85 in 10.0 mi ESE 4.6 mph - N/A   Clear
10:52 AM 77.0 °F - 64.4 °F 65% 29.86 in 10.0 mi Calm Calm - N/A   Clear
11:33 AM 75.2 °F - 66.2 °F 73% 29.86 in 10.0 mi Calm Calm - N/A   Clear
12:53 PM 78.8 °F - 71.6 °F 78% 29.86 in 10.0 mi SW 5.8 mph - N/A   Clear
1:12 PM 80.6 °F 84.6 °F 71.6 °F 74% 29.85 in 10.0 mi SSW 5.8 mph - N/A   Clear
1:33 PM 80.6 °F 84.6 °F 71.6 °F 74% 29.84 in 10.0 mi SSW 6.9 mph - N/A   Scattered Clouds
1:52 PM 80.6 °F 84.6 °F 71.6 °F 74% 29.84 in 10.0 mi WSW 5.8 mph - N/A   Clear
2:12 PM 80.6 °F 84.6 °F 71.6 °F 74% 29.84 in 10.0 mi WSW 6.9 mph - N/A   Clear
2:33 PM 82.4 °F 86.3 °F 69.8 °F 66% 29.83 in 10.0 mi WSW 10.4 mph 16.1 mph N/A   Clear
2:52 PM 82.4 °F 84.6 °F 66.2 °F 58% 29.83 in 10.0 mi WSW 10.4 mph 16.1 mph N/A   Clear
3:13 PM 82.4 °F 86.3 °F 69.8 °F 66% 29.83 in 10.0 mi West 12.7 mph 17.3 mph N/A   Clear
3:32 PM 82.4 °F 87.2 °F 71.6 °F 70% 29.83 in 10.0 mi West 13.8 mph 18.4 mph N/A   Clear
3:53 PM 84.2 °F 89.6 °F 71.6 °F 66% 29.82 in 10.0 mi West 11.5 mph 20.7 mph N/A   Scattered Clouds
4:13 PM 82.4 °F 87.2 °F 71.6 °F 70% 29.81 in 10.0 mi West 9.2 mph 17.3 mph N/A   Scattered Clouds
4:32 PM 82.4 °F 87.2 °F 71.6 °F 70% 29.81 in 10.0 mi West 10.4 mph 16.1 mph N/A   Scattered Clouds
4:53 PM 84.2 °F 90.9 °F 73.4 °F 70% 29.80 in 10.0 mi West 9.2 mph 16.1 mph N/A   Scattered Clouds
5:13 PM 84.2 °F 88.4 °F 69.8 °F 62% 29.80 in 10.0 mi West 12.7 mph 17.3 mph N/A   Scattered Clouds
5:32 PM 84.2 °F 89.6 °F 71.6 °F 66% 29.80 in 10.0 mi West 10.4 mph 25.3 mph N/A   Scattered Clouds
5:53 PM 84.2 °F 86.6 °F 66.2 °F 55% 29.79 in 10.0 mi West 11.5 mph 19.6 mph N/A   Clear
6:13 PM 84.2 °F 83.8 °F 59.0 °F 42% 29.79 in 10.0 mi West 12.7 mph 18.4 mph N/A   Clear
6:32 PM 82.4 °F 82.9 °F 60.8 °F 48% 29.79 in 10.0 mi West 11.5 mph - N/A   Clear
6:53 PM 82.4 °F 82.9 °F 60.8 °F 48% 29.80 in 10.0 mi West 9.2 mph - N/A   Clear
7:13 PM 82.4 °F 82.9 °F 60.8 °F 48% 29.81 in 10.0 mi West 9.2 mph - N/A   Clear
7:32 PM 80.6 °F 81.5 °F 60.8 °F 51% 29.81 in 10.0 mi West 8.1 mph - N/A   Clear
7:53 PM 80.6 °F 81.5 °F 60.8 °F 51% 29.81 in 10.0 mi West 6.9 mph - N/A   Clear
8:13 PM 78.8 °F - 60.8 °F 54% 29.81 in 10.0 mi West 4.6 mph - N/A   Clear
8:32 PM 77.0 °F - 60.8 °F 57% 29.81 in 10.0 mi West 4.6 mph - N/A   Clear
8:53 PM 75.2 °F - 60.8 °F 61% 29.82 in 10.0 mi West 3.5 mph - N/A   Clear
9:13 PM 73.4 °F - 59.0 °F 61% 29.83 in 10.0 mi West 5.8 mph - N/A   Clear
9:32 PM 75.2 °F - 57.2 °F 53% 29.84 in 10.0 mi NW 6.9 mph - N/A   Clear
9:53 PM 73.4 °F - 57.2 °F 57% 29.84 in 10.0 mi WNW 5.8 mph - N/A   Clear
10:13 PM 73.4 °F - 60.8 °F 65% 29.85 in 10.0 mi WNW 4.6 mph - N/A   Clear
10:33 PM 71.6 °F - 60.8 °F 69% 29.85 in 10.0 mi Calm Calm - N/A   Mostly Cloudy
10:52 PM 71.6 °F - 60.8 °F 69% 29.85 in 10.0 mi Calm Calm - N/A   Mostly Cloudy
11:12 PM 71.6 °F - 60.8 °F 69% 29.86 in 10.0 mi West 5.8 mph - N/A   Scattered Clouds
11:33 PM 73.4 °F - 57.2 °F 57% 29.86 in 10.0 mi West 8.1 mph - N/A   Clear
11:52 PM 73.4 °F - 57.2 °F 57% 29.86 in 10.0 mi West 8.1 mph - N/A   Clear